TimeGMT,TemperatureF,Dew PointF,Humidity,Sea Level PressureIn,VisibilityMPH,Wind Direction,Wind SpeedMPH,Gust SpeedMPH,PrecipitationIn,Events,Conditions,WindDirDegrees,DateUTC
12:20 AM,48.2,42.8,82,28.94,6.2,SSW,23.0,35.7,N/A,Rain,Light Rain,200,2013-01-27 00:20:00
12:50 AM,48.2,42.8,82,28.91,6.2,SSW,23.0,36.8,N/A,Rain,Light Rain,210,2013-01-27 00:50:00
1:20 AM,48.2,44.6,87,28.85,6.2,SSW,23.0,-,N/A,Rain,Light Rain,200,2013-01-27 01:20:00
1:50 AM,50.0,44.6,82,28.85,6.2,SSW,25.3,36.8,N/A,,Scattered Clouds,200,2013-01-27 01:50:00
2:20 AM,50.0,44.6,82,28.82,5.6,SSW,26.5,38.0,N/A,Rain,Rain,200,2013-01-27 02:20:00
2:50 AM,50.0,44.6,82,28.80,6.2,SSW,25.3,-,N/A,Rain,Light Rain,200,2013-01-27 02:50:00
3:20 AM,50.0,44.6,82,28.80,6.2,SSW,27.6,-,N/A,Rain,Light Rain,210,2013-01-27 03:20:00
3:50 AM,48.2,42.8,82,28.77,6.2,SSW,16.1,-,N/A,,Unknown,210,2013-01-27 03:50:00
4:20 AM,48.2,42.8,82,28.77,6.2,SW,18.4,-,N/A,,Partly Cloudy,220,2013-01-27 04:20:00
4:50 AM,48.2,42.8,82,28.77,6.2,SW,19.6,-,N/A,Rain,Light Rain Showers,220,2013-01-27 04:50:00
5:20 AM,44.6,41.0,87,28.80,6.2,WSW,15.0,26.5,N/A,,Scattered Clouds,250,2013-01-27 05:20:00
5:50 AM,44.6,42.8,93,28.82,6.2,WSW,16.1,-,N/A,Rain,Light Rain Showers,250,2013-01-27 05:50:00
6:20 AM,44.6,39.2,81,28.82,6.2,West,11.5,23.0,N/A,,Scattered Clouds,260,2013-01-27 06:20:00
6:50 AM,42.8,39.2,87,28.80,6.2,WSW,13.8,-,N/A,,Partly Cloudy,250,2013-01-27 06:50:00
7:20 AM,42.8,37.4,81,28.80,6.2,WSW,17.3,-,N/A,,Partly Cloudy,250,2013-01-27 07:20:00
7:50 AM,42.8,39.2,87,28.80,6.2,WSW,19.6,-,N/A,,Scattered Clouds,240,2013-01-27 07:50:00
8:20 AM,41.0,39.2,93,28.80,6.2,WSW,15.0,-,N/A,Rain,Light Rain Showers,250,2013-01-27 08:20:00
8:50 AM,41.0,37.4,87,28.82,6.2,WSW,23.0,38.0,N/A,Rain,Light Rain Showers,250,2013-01-27 08:50:00
9:20 AM,39.2,35.6,87,28.85,6.2,West,17.3,28.8,N/A,Rain,Light Rain Showers,260,2013-01-27 09:20:00
9:50 AM,39.2,37.4,93,28.88,6.2,WSW,8.1,-,N/A,,Mostly Cloudy,240,2013-01-27 09:50:00
10:20 AM,41.0,37.4,87,28.88,6.2,WSW,15.0,-,N/A,Rain,Light Rain Showers,250,2013-01-27 10:20:00
10:50 AM,37.4,35.6,93,28.91,6.2,West,13.8,-,N/A,,Mostly Cloudy,270,2013-01-27 10:50:00
11:20 AM,37.4,35.6,93,28.94,6.2,WSW,15.0,-,N/A,,Scattered Clouds,240,2013-01-27 11:20:00
11:50 AM,42.8,37.4,81,28.94,6.2,WSW,12.7,-,N/A,,Scattered Clouds,240,2013-01-27 11:50:00
12:20 PM,41.0,35.6,81,28.94,6.2,WSW,20.7,-,N/A,,Mostly Cloudy,240,2013-01-27 12:20:00
12:50 PM,42.8,35.6,76,28.94,6.2,WSW,21.9,-,N/A,,Mostly Cloudy,240,2013-01-27 12:50:00
1:20 PM,42.8,35.6,76,28.94,6.2,SW,25.3,-,N/A,,Scattered Clouds,230,2013-01-27 13:20:00
1:50 PM,42.8,35.6,76,28.94,6.2,SW,27.6,-,N/A,Rain,Light Rain Showers,230,2013-01-27 13:50:00
2:20 PM,41.0,35.6,81,28.94,6.2,SW,27.6,-,N/A,Rain,Light Rain,230,2013-01-27 14:20:00
2:50 PM,39.2,35.6,87,28.97,6.2,SW,24.2,36.8,N/A,Rain,Light Rain,230,2013-01-27 14:50:00
3:20 PM,41.0,37.4,87,28.97,6.2,SW,24.2,-,N/A,,Mostly Cloudy,230,2013-01-27 15:20:00
3:50 PM,41.0,35.6,81,29.00,6.2,SW,20.7,-,N/A,,Scattered Clouds,230,2013-01-27 15:50:00
4:20 PM,41.0,37.4,87,29.00,6.2,SW,25.3,-,N/A,,Partly Cloudy,230,2013-01-27 16:20:00
4:50 PM,41.0,35.6,81,29.03,6.2,SW,24.2,-,N/A,,Scattered Clouds,230,2013-01-27 16:50:00
5:20 PM,41.0,35.6,81,29.06,6.2,SW,23.0,-,N/A,,Partly Cloudy,230,2013-01-27 17:20:00
5:50 PM,39.2,35.6,87,29.06,6.2,SW,23.0,-,N/A,,Partly Cloudy,230,2013-01-27 17:50:00
6:20 PM,39.2,35.6,87,29.09,6.2,WSW,20.7,-,N/A,,Partly Cloudy,240,2013-01-27 18:20:00
6:50 PM,39.2,35.6,87,29.09,6.2,WSW,19.6,-,N/A,,Partly Cloudy,240,2013-01-27 18:50:00
7:20 PM,39.2,33.8,81,29.12,6.2,WSW,20.7,-,N/A,,Partly Cloudy,240,2013-01-27 19:20:00
7:50 PM,39.2,35.6,87,29.12,6.2,WSW,12.7,-,N/A,,Scattered Clouds,240,2013-01-27 19:50:00
8:20 PM,39.2,33.8,81,29.15,6.2,SW,16.1,-,N/A,,Partly Cloudy,230,2013-01-27 20:20:00
8:50 PM,39.2,35.6,87,29.15,6.2,WSW,18.4,-,N/A,Rain,Light Rain Showers,240,2013-01-27 20:50:00
9:20 PM,39.2,35.6,87,29.18,6.2,WSW,13.8,-,N/A,Rain,Light Rain Showers,240,2013-01-27 21:20:00
9:50 PM,39.2,33.8,81,29.18,6.2,SW,17.3,-,N/A,,Scattered Clouds,230,2013-01-27 21:50:00
10:20 PM,39.2,33.8,81,29.18,6.2,SW,20.7,-,N/A,,Partly Cloudy,230,2013-01-27 22:20:00
10:50 PM,39.2,33.8,81,29.18,6.2,SW,19.6,-,N/A,,Scattered Clouds,230,2013-01-27 22:50:00
11:20 PM,37.4,33.8,87,29.18,6.2,SW,23.0,-,N/A,Rain,Light Rain Showers,230,2013-01-27 23:20:00
11:50 PM,37.4,33.8,87,29.21,6.2,SW,24.2,-,N/A,,Scattered Clouds,230,2013-01-27 23:50:00